Weather Roundup
Issued by NWS Springfield, MO

Home | Current Version | Previous Version | Text Only | Print | Product List | Glossary On
Versions: 1 2 3 4 5 6 7 8 9 10 11 12 13 14 15 16 17 18 19 20 21 22 23 24 25 26 27 28 29 30 31 32 33 34 35 36 37 38 39 40 41 42 43 44 45 46 47 48 49 50
000
NZUS99 KSGF 221707
HRRSGF

HOURLY WEATHER
NATIONAL WEATHER SERVICE SPRINGFIELD MO
1100 AM CST SUN JAN 22 2017

......SGF CWA......

CITY           SKY/WX    TMP DP  RH WIND       PRES   REMARKS
SPRINGFIELD    LGT RAIN  49  46  90 N13       29.52R
JOPLIN         RAIN      46  45  96 N16G29    29.58R FOG
WEST PLAINS    CLOUDY    53  51  93 N10G18    29.45S
ROLLA          CLOUDY    45  45 100 N15       29.51S FOG
OSAGE BEACH    RAIN      46  43  89 VRB3      29.57R
BRANSON        LGT RAIN  50  50 100 N14       29.46R VSB 1

......SURROUNDING SGF CWA......

CITY           SKY/WX    TMP DP  RH WIND       PRES   REMARKS
CHANUTE        LGT RAIN  47  43  86 N15G23    29.67R
PARSONS        LGT RAIN  48  43  82 N16G29    29.66R
COFFEYVILLE    CLOUDY    49  44  83 N23G33    29.64R
EMPORIA        MOSUNNY   46  35  65 N16       29.74R
GROVE OK       RAIN      50  48  93 N13G23    29.55R
ROGERS AR      CLOUDY    51  50  96 N13       29.48R
SILOAM SPRINGS CLOUDY    50  46  87 N20G25    29.47R
HARRISON AR    LGT RAIN  53  53 100 N9        29.43S
NEAR YELLVILLE CLOUDY    54  48  82 CALM      29.41S

......KANSAS AND MISSOURI......

CITY           SKY/WX    TMP DP  RH WIND       PRES   REMARKS
KANSAS CTY INT PTSUNNY   40  33  76 NW12      29.71R WCI  33
DOWNTOWN KC    CLOUDY    44  38  79 N8        29.71R
COLUMBIA       CLOUDY    46  40  79 N21       29.59S
SEDALIA        CLOUDY    46  43  89 N12       29.65R
ST JOSEPH      CLOUDY    33  32  96 N15       29.77R WCI  23
ST LOUIS       CLOUDY    50  44  80 N12       29.53F
SPIRIT OF STL  CLOUDY    49  44  83 N8        29.53F HAZE
KIRKSVILLE     MIX PCPN  37  37 100 N7        29.69R VSB 1/2 WCI  32
WICHITA        MOSUNNY   46  37  71 N16G22    29.77R
TOPEKA         MOSUNNY   44  36  73 N13       29.75R
OLATHE         CLOUDY    43  40  89 N9        29.70R

......TENNESSEE......

CITY           SKY/WX    TMP DP  RH WIND       PRES   REMARKS
MEMPHIS        CLOUDY    57  55  93 VRB3      29.38S
NASHVILLE      PTSUNNY   61  55  81 E7        29.45F

......ARKANSAS.......

CITY           SKY/WX    TMP DP  RH WIND       PRES   REMARKS
FAYETTEVILLE   CLOUDY    53  52  96 N12       29.44R
FT SMITH       LGT RAIN  53  51  93 W10       29.42R FOG
LITTLE ROCK    LGT RAIN  55  55 100 N3        29.39S

......OKLAHOMA.......

CITY           SKY/WX    TMP DP  RH WIND       PRES   REMARKS
TULSA          LGT RAIN  50  49  96 N26G36    29.59R
PONCA CITY     MOSUNNY   50  41  71 N23G32    29.72R
MCALESTER      CLOUDY    54  46  74 NW25G32   29.52R
OKLAHOMA CITY  PTSUNNY   52  43  71 N26G41    29.70R

......IOWA............

CITY           SKY/WX    TMP DP  RH WIND       PRES   REMARKS
DES MOINES     CLOUDY    36  34  92 NW9       29.73R FOG     WCI  29
QUAD CITIES    CLOUDY    39  36  89 CALM      29.67S FOG

......ILLINOIS........

CITY           SKY/WX    TMP DP  RH WIND       PRES   REMARKS
QUINCY         CLOUDY    44  40  85 N15       29.63S
CHICAGO        CLOUDY    44  39  82 E5        29.64S



USA.gov is the U.S. government's official web portal to all federal, state and local government web resources and services.